PIMOHWEATHER Station Historical Data
Daily Summary for March 08, 2020 Units:  Metric    English   Both
Daily Weekly Monthly Yearly
  High: Low: Average:
Temperature: 36.0 °C 27.0 °C 30.2 °C
Dew Point: 27.0 °C 24.0 °C 25.7 °C
Humidity: 93% 58% 78%
Wind Speed: 20km/h 0km/h 8.2km/h
Wind Gust: 28km/h - -
Wind- - SSE
Pressure: 1011.2 hPa 1005.4 hPa -
Precipitation: 0.25 mm    
 
 
Tabular Data for March 08, 2020
Time Temperature Dew Point Pressure Wind Wind Speed Wind Gust Humidity Rainfall Rate (Hourly) solar
00:04 29.0 °C 25.0 °C 1009.8 hPa SE 6 km/h 8 km/h 81% 0.00 mm 0.00 W/m2
00:09 29.0 °C 25.0 °C 1009.8 hPa SE 4 km/h 8 km/h 81% 0.00 mm 0.00 W/m2
00:14 29.0 °C 25.0 °C 1009.8 hPa SE 8 km/h 12 km/h 81% 0.00 mm 0.00 W/m2
00:19 28.0 °C 25.0 °C 1009.5 hPa SSE 3 km/h 4 km/h 81% 0.00 mm 0.00 W/m2
00:24 28.0 °C 25.0 °C 1009.5 hPa SE 3 km/h 4 km/h 81% 0.00 mm 0.00 W/m2
00:29 29.0 °C 25.0 °C 1009.5 hPa SE 4 km/h 8 km/h 82% 0.00 mm 0.00 W/m2
00:34 28.0 °C 25.0 °C 1009.5 hPa SE 6 km/h 8 km/h 82% 0.00 mm 0.00 W/m2
00:39 28.0 °C 25.0 °C 1009.1 hPa SE 6 km/h 8 km/h 82% 0.00 mm 0.00 W/m2
00:44 28.0 °C 25.0 °C 1009.1 hPa SE 5 km/h 8 km/h 82% 0.00 mm 0.00 W/m2
00:49 28.0 °C 25.0 °C 1009.1 hPa ESE 8 km/h 8 km/h 82% 0.00 mm 0.00 W/m2
00:54 28.0 °C 25.0 °C 1009.1 hPa SE 6 km/h 8 km/h 82% 0.00 mm 0.00 W/m2
00:59 28.0 °C 25.0 °C 1009.1 hPa ESE 6 km/h 8 km/h 82% 0.00 mm 0.00 W/m2
01:04 28.0 °C 25.0 °C 1009.1 hPa ESE 6 km/h 8 km/h 82% 0.00 mm 0.00 W/m2
01:09 28.0 °C 25.0 °C 1009.1 hPa SE 8 km/h 8 km/h 82% 0.00 mm 0.00 W/m2
01:14 28.0 °C 25.0 °C 1008.8 hPa ESE 5 km/h 8 km/h 82% 0.00 mm 0.00 W/m2
01:19 28.0 °C 25.0 °C 1009.1 hPa ESE 5 km/h 8 km/h 81% 0.00 mm 0.00 W/m2
01:24 28.0 °C 25.0 °C 1009.1 hPa SE 5 km/h 8 km/h 81% 0.00 mm 0.00 W/m2
01:29 28.0 °C 25.0 °C 1009.1 hPa SE 9 km/h 12 km/h 82% 0.00 mm 0.00 W/m2
01:34 28.0 °C 25.0 °C 1009.1 hPa SE 8 km/h 12 km/h 82% 0.00 mm 0.00 W/m2
01:39 28.0 °C 25.0 °C 1008.8 hPa SE 5 km/h 8 km/h 83% 0.00 mm 0.00 W/m2
01:44 28.0 °C 25.0 °C 1008.8 hPa ESE 3 km/h 4 km/h 82% 0.00 mm 0.00 W/m2
01:49 28.0 °C 25.0 °C 1008.8 hPa ESE 5 km/h 8 km/h 82% 0.00 mm 0.00 W/m2
01:54 28.0 °C 25.0 °C 1008.8 hPa SE 5 km/h 8 km/h 82% 0.00 mm 0.00 W/m2
01:59 28.0 °C 25.0 °C 1008.8 hPa SE 1 km/h 4 km/h 82% 0.00 mm 0.00 W/m2
02:04 28.0 °C 25.0 °C 1008.5 hPa East 1 km/h 4 km/h 82% 0.00 mm 0.00 W/m2
02:09 28.0 °C 25.0 °C 1008.5 hPa East 1 km/h 4 km/h 82% 0.00 mm 0.00 W/m2
02:14 28.0 °C 25.0 °C 1008.5 hPa Calm   4 km/h 83% 0.00 mm 0.00 W/m2
02:19 28.0 °C 25.0 °C 1008.5 hPa SE 1 km/h 4 km/h 83% 0.00 mm 0.00 W/m2
02:24 28.0 °C 25.0 °C 1008.5 hPa Calm   4 km/h 83% 0.00 mm 0.00 W/m2
02:29 28.0 °C 25.0 °C 1008.5 hPa ESE 3 km/h 4 km/h 83% 0.00 mm 0.00 W/m2
02:39 28.0 °C 25.0 °C 1008.5 hPa Calm     84% 0.00 mm 0.00 W/m2
02:44 28.0 °C 25.0 °C 1008.5 hPa Calm     84% 0.00 mm 0.00 W/m2
02:49 28.0 °C 25.0 °C 1008.5 hPa SSE 3 km/h 4 km/h 84% 0.00 mm 0.00 W/m2
02:54 28.0 °C 25.0 °C 1008.5 hPa SSE 6 km/h 8 km/h 85% 0.00 mm 0.00 W/m2
02:59 28.0 °C 25.0 °C 1008.5 hPa SE 6 km/h 8 km/h 85% 0.00 mm 0.00 W/m2
03:04 28.0 °C 25.0 °C 1008.5 hPa SE 3 km/h 4 km/h 84% 0.00 mm 0.00 W/m2
03:09 28.0 °C 25.0 °C 1008.5 hPa SE 6 km/h 8 km/h 85% 0.00 mm 0.00 W/m2
03:14 28.0 °C 25.0 °C 1008.5 hPa East 4 km/h 8 km/h 84% 0.00 mm 0.00 W/m2
03:19 28.0 °C 25.0 °C 1008.5 hPa SE 3 km/h 4 km/h 84% 0.00 mm 0.00 W/m2
03:24 28.0 °C 25.0 °C 1008.5 hPa East 2 km/h 4 km/h 84% 0.00 mm 0.00 W/m2
03:29 28.0 °C 25.0 °C 1008.5 hPa Calm   4 km/h 84% 0.00 mm 0.00 W/m2
03:34 28.0 °C 25.0 °C 1008.5 hPa Calm     84% 0.00 mm 0.00 W/m2
03:39 28.0 °C 25.0 °C 1008.5 hPa Calm     84% 0.00 mm 0.00 W/m2
03:44 28.0 °C 25.0 °C 1008.5 hPa Calm     84% 0.00 mm 0.00 W/m2
03:49 28.0 °C 25.0 °C 1008.8 hPa Calm     84% 0.00 mm 0.00 W/m2
03:54 28.0 °C 25.0 °C 1008.8 hPa ESE 1 km/h 4 km/h 84% 0.00 mm 0.00 W/m2
03:59 27.0 °C 25.0 °C 1008.8 hPa Calm     84% 0.00 mm 0.00 W/m2
04:04 27.0 °C 25.0 °C 1008.8 hPa NNE 8 km/h 12 km/h 84% 0.00 mm 0.00 W/m2
04:09 27.0 °C 25.0 °C 1008.8 hPa NNE 9 km/h 12 km/h 85% 0.00 mm 0.00 W/m2
04:14 27.0 °C 25.0 °C 1008.8 hPa North 9 km/h 12 km/h 86% 0.00 mm 0.00 W/m2
04:19 27.0 °C 25.0 °C 1008.8 hPa NNE 9 km/h 12 km/h 86% 0.00 mm 0.00 W/m2
04:24 27.0 °C 25.0 °C 1008.8 hPa NNE 7 km/h 8 km/h 86% 0.00 mm 0.00 W/m2
04:29 27.0 °C 25.0 °C 1008.8 hPa NNE 4 km/h 4 km/h 86% 0.00 mm 0.00 W/m2
04:34 27.0 °C 25.0 °C 1008.8 hPa NNE 5 km/h 8 km/h 86% 0.00 mm 0.00 W/m2
04:39 27.0 °C 25.0 °C 1008.8 hPa NE 3 km/h 4 km/h 86% 0.00 mm 0.00 W/m2
04:44 27.0 °C 25.0 °C 1008.8 hPa NE 4 km/h 4 km/h 85% 0.00 mm 0.00 W/m2
04:49 27.0 °C 24.0 °C 1008.8 hPa NE 4 km/h 4 km/h 85% 0.00 mm 0.00 W/m2
04:54 27.0 °C 25.0 °C 1008.8 hPa Calm   4 km/h 85% 0.00 mm 0.00 W/m2
04:59 27.0 °C 24.0 °C 1008.8 hPa West 3 km/h 4 km/h 84% 0.00 mm 0.00 W/m2
05:04 27.0 °C 24.0 °C 1008.8 hPa NE 4 km/h 8 km/h 84% 0.00 mm 0.00 W/m2
05:09 27.0 °C 24.0 °C 1009.1 hPa ESE 3 km/h 4 km/h 84% 0.00 mm 0.00 W/m2
05:14 28.0 °C 25.0 °C 1009.1 hPa Calm   4 km/h 84% 0.00 mm 0.00 W/m2
05:19 28.0 °C 25.0 °C 1009.1 hPa NE 5 km/h 8 km/h 83% 0.00 mm 0.00 W/m2
05:24 28.0 °C 24.0 °C 1009.1 hPa East 1 km/h 4 km/h 83% 0.00 mm 0.00 W/m2
05:29 27.0 °C 24.0 °C 1009.1 hPa SE 3 km/h 4 km/h 84% 0.00 mm 0.00 W/m2
05:34 27.0 °C 24.0 °C 1009.1 hPa NE 5 km/h 8 km/h 84% 0.00 mm 0.00 W/m2
05:39 27.0 °C 24.0 °C 1009.1 hPa ENE 4 km/h 4 km/h 85% 0.00 mm 0.00 W/m2
05:44 27.0 °C 24.0 °C 1009.5 hPa NE 6 km/h 8 km/h 85% 0.00 mm 0.00 W/m2
05:49 27.0 °C 24.0 °C 1009.1 hPa NNE 4 km/h 8 km/h 85% 0.00 mm 0.00 W/m2
05:54 27.0 °C 24.0 °C 1009.5 hPa NNE 4 km/h 4 km/h 85% 0.00 mm 0.00 W/m2
05:59 27.0 °C 24.0 °C 1009.5 hPa NNE 6 km/h 12 km/h 85% 0.00 mm 0.00 W/m2
06:04 27.0 °C 24.0 °C 1009.8 hPa North 5 km/h 8 km/h 85% 0.00 mm 0.00 W/m2
06:09 27.0 °C 24.0 °C 1009.5 hPa North 7 km/h 8 km/h 85% 0.00 mm 0.99 W/m2
06:14 27.0 °C 24.0 °C 1009.8 hPa NNE 5 km/h 8 km/h 84% 0.00 mm 4.82 W/m2
06:19 27.0 °C 24.0 °C 1009.5 hPa NNE 5 km/h 8 km/h 84% 0.00 mm 9.40 W/m2
06:24 27.0 °C 24.0 °C 1009.8 hPa NNE 5 km/h 8 km/h 84% 0.00 mm 13.90 W/m2
06:29 27.0 °C 24.0 °C 1009.8 hPa NNE 4 km/h 8 km/h 84% 0.00 mm 19.67 W/m2
06:34 27.0 °C 24.0 °C 1010.2 hPa North 3 km/h 4 km/h 84% 0.00 mm 29.57 W/m2
06:39 27.0 °C 24.0 °C 1010.2 hPa NE 3 km/h 4 km/h 84% 0.00 mm 36.67 W/m2
06:44 27.0 °C 24.0 °C 1010.2 hPa NE 5 km/h 8 km/h 83% 0.00 mm 42.71 W/m2
06:49 27.0 °C 24.0 °C 1010.2 hPa NNE 4 km/h 4 km/h 83% 0.00 mm 44.29 W/m2
06:54 27.0 °C 24.0 °C 1010.2 hPa ESE 1 km/h 4 km/h 83% 0.00 mm 55.15 W/m2
06:59 28.0 °C 24.0 °C 1010.2 hPa North 5 km/h 8 km/h 82% 0.00 mm 72.38 W/m2
07:04 28.0 °C 24.0 °C 1010.2 hPa NE 4 km/h 4 km/h 82% 0.00 mm 82.11 W/m2
07:09 28.0 °C 24.0 °C 1010.5 hPa NNE 3 km/h 4 km/h 81% 0.00 mm 93.31 W/m2
07:14 28.0 °C 24.0 °C 1010.2 hPa ENE 1 km/h 4 km/h 80% 0.00 mm 110.81 W/m2
07:19 29.0 °C 25.0 °C 1010.5 hPa Calm     79% 0.00 mm 125.49 W/m2
07:24 29.0 °C 25.0 °C 1010.5 hPa NE 1 km/h 4 km/h 77% 0.00 mm 126.78 W/m2
07:29 30.0 °C 25.0 °C 1010.5 hPa NNE 6 km/h 8 km/h 77% 0.00 mm 134.34 W/m2
07:34 30.0 °C 25.0 °C 1010.5 hPa NE 4 km/h 4 km/h 76% 0.00 mm 148.56 W/m2
07:39 30.0 °C 25.0 °C 1010.5 hPa South 3 km/h 4 km/h 75% 0.00 mm 154.70 W/m2
07:44 30.0 °C 25.0 °C 1010.5 hPa South 4 km/h 8 km/h 75% 0.00 mm 161.60 W/m2
07:49 30.0 °C 25.0 °C 1010.5 hPa NNE 5 km/h 8 km/h 75% 0.00 mm 166.89 W/m2
07:54 30.0 °C 25.0 °C 1010.8 hPa NNW 3 km/h 4 km/h 76% 0.00 mm 178.29 W/m2
07:59 30.0 °C 25.0 °C 1010.8 hPa NE 4 km/h 4 km/h 75% 0.00 mm 187.63 W/m2
08:04 30.0 °C 25.0 °C 1010.8 hPa North 4 km/h 4 km/h 75% 0.00 mm 200.90 W/m2
08:09 30.0 °C 25.0 °C 1010.8 hPa NNW 9 km/h 12 km/h 77% 0.00 mm 203.07 W/m2
08:14 30.0 °C 25.0 °C 1011.2 hPa NW 10 km/h 12 km/h 77% 0.00 mm 208.75 W/m2
08:19 29.0 °C 25.0 °C 1011.2 hPa NW 9 km/h 12 km/h 77% 0.00 mm 208.16 W/m2
08:24 29.0 °C 25.0 °C 1011.2 hPa North 6 km/h 12 km/h 78% 0.00 mm 196.22 W/m2
08:29 29.0 °C 25.0 °C 1011.2 hPa NW 9 km/h 12 km/h 77% 0.00 mm 115.24 W/m2
08:34 29.0 °C 25.0 °C 1011.2 hPa WNW 6 km/h 8 km/h 77% 0.00 mm 131.48 W/m2
08:39 30.0 °C 25.0 °C 1011.2 hPa West 3 km/h 8 km/h 77% 0.00 mm 253.70 W/m2
08:44 30.0 °C 25.0 °C 1011.2 hPa SSW 5 km/h 8 km/h 76% 0.00 mm 278.16 W/m2
08:49 31.0 °C 25.0 °C 1011.2 hPa South 6 km/h 8 km/h 74% 0.00 mm 290.01 W/m2
08:54 31.0 °C 25.0 °C 1010.8 hPa South 5 km/h 8 km/h 73% 0.00 mm 273.93 W/m2
08:59 31.0 °C 25.0 °C 1011.2 hPa SSW 5 km/h 8 km/h 73% 0.00 mm 256.19 W/m2
09:04 31.0 °C 25.0 °C 1011.2 hPa South 6 km/h 8 km/h 74% 0.00 mm 273.44 W/m2
09:09 31.0 °C 25.0 °C 1011.2 hPa South 7 km/h 8 km/h 73% 0.00 mm 287.95 W/m2
09:14 31.0 °C 25.0 °C 1011.2 hPa SSE 6 km/h 8 km/h 73% 0.00 mm 269.89 W/m2
09:19 31.0 °C 26.0 °C 1011.2 hPa South 7 km/h 8 km/h 72% 0.00 mm 284.57 W/m2
09:24 32.0 °C 26.0 °C 1011.2 hPa South 7 km/h 12 km/h 72% 0.00 mm 306.52 W/m2
09:29 32.0 °C 26.0 °C 1011.2 hPa WSW 7 km/h 12 km/h 71% 0.00 mm 310.90 W/m2
09:34 31.0 °C 26.0 °C 1011.2 hPa SSW 10 km/h 12 km/h 73% 0.00 mm 275.52 W/m2
09:39 31.0 °C 26.0 °C 1011.2 hPa South 8 km/h 12 km/h 74% 0.00 mm 287.07 W/m2
09:44 32.0 °C 26.0 °C 1011.2 hPa South 7 km/h 8 km/h 74% 0.00 mm 363.95 W/m2
09:49 32.0 °C 26.0 °C 1011.2 hPa SW 10 km/h 12 km/h 72% 0.00 mm 360.08 W/m2
09:54 32.0 °C 26.0 °C 1011.2 hPa West 9 km/h 12 km/h 72% 0.00 mm 340.60 W/m2
09:59 32.0 °C 26.0 °C 1011.2 hPa WNW 6 km/h 8 km/h 72% 0.00 mm 357.34 W/m2
10:04 32.0 °C 26.0 °C 1010.8 hPa SSW 8 km/h 12 km/h 72% 0.00 mm 383.27 W/m2
10:09 32.0 °C 26.0 °C 1010.8 hPa South 6 km/h 12 km/h 73% 0.00 mm 383.72 W/m2
10:14 32.0 °C 26.0 °C 1010.8 hPa NW 9 km/h 12 km/h 73% 0.00 mm 380.14 W/m2
10:19 32.0 °C 26.0 °C 1010.8 hPa South 9 km/h 12 km/h 70% 0.00 mm 385.77 W/m2
10:24 32.0 °C 26.0 °C 1010.8 hPa SSW 9 km/h 12 km/h 71% 0.00 mm 388.95 W/m2
10:29 32.0 °C 26.0 °C 1010.8 hPa SW 10 km/h 12 km/h 71% 0.00 mm 400.08 W/m2
10:34 32.0 °C 26.0 °C 1010.8 hPa SSW 13 km/h 16 km/h 72% 0.00 mm 387.51 W/m2
10:39 32.0 °C 26.0 °C 1010.5 hPa South 9 km/h 12 km/h 72% 0.00 mm 375.96 W/m2
10:44 32.0 °C 26.0 °C 1010.5 hPa South 13 km/h 16 km/h 73% 0.00 mm 380.78 W/m2
10:49 32.0 °C 26.0 °C 1010.5 hPa SW 8 km/h 8 km/h 72% 0.00 mm 385.60 W/m2
10:54 32.0 °C 26.0 °C 1010.5 hPa SSW 12 km/h 16 km/h 72% 0.00 mm 394.02 W/m2
10:59 32.0 °C 26.0 °C 1010.5 hPa SSW 8 km/h 12 km/h 71% 0.00 mm 404.63 W/m2
11:04 33.0 °C 26.0 °C 1010.2 hPa SSW 10 km/h 12 km/h 71% 0.00 mm 415.33 W/m2
11:09 32.0 °C 26.0 °C 1010.2 hPa SW 9 km/h 12 km/h 71% 0.00 mm 424.33 W/m2
11:14 32.0 °C 26.0 °C 1010.2 hPa WNW 11 km/h 16 km/h 72% 0.00 mm 427.58 W/m2
11:19 32.0 °C 26.0 °C 1010.2 hPa South 11 km/h 12 km/h 72% 0.00 mm 410.95 W/m2
11:24 32.0 °C 26.0 °C 1010.2 hPa South 14 km/h 20 km/h 71% 0.00 mm 422.08 W/m2
11:29 32.0 °C 26.0 °C 1009.8 hPa South 15 km/h 20 km/h 71% 0.00 mm 428.76 W/m2
11:34 33.0 °C 26.0 °C 1009.5 hPa SW 10 km/h 16 km/h 71% 0.00 mm 433.21 W/m2
11:39 33.0 °C 26.0 °C 1009.5 hPa West 13 km/h 16 km/h 71% 0.00 mm 431.43 W/m2
11:44 33.0 °C 26.0 °C 1009.5 hPa West 7 km/h 12 km/h 70% 0.00 mm 438.52 W/m2
11:49 33.0 °C 27.0 °C 1009.1 hPa SW 10 km/h 20 km/h 69% 0.00 mm 439.26 W/m2
11:54 33.0 °C 27.0 °C 1009.1 hPa NNE 11 km/h 16 km/h 69% 0.00 mm 436.44 W/m2
11:59 33.0 °C 26.0 °C 1009.1 hPa South 10 km/h 12 km/h 70% 0.00 mm 442.24 W/m2
12:04 33.0 °C 27.0 °C 1009.1 hPa SW 15 km/h 16 km/h 71% 0.00 mm 429.54 W/m2
12:09 33.0 °C 26.0 °C 1009.1 hPa West 9 km/h 12 km/h 70% 0.00 mm 423.79 W/m2
12:14 33.0 °C 26.0 °C 1008.8 hPa WSW 7 km/h 12 km/h 70% 0.00 mm 440.53 W/m2
12:19 33.0 °C 26.0 °C 1008.8 hPa WNW 10 km/h 12 km/h 70% 0.00 mm 439.84 W/m2
12:24 33.0 °C 26.0 °C 1008.5 hPa SSW 9 km/h 12 km/h 70% 0.00 mm 451.56 W/m2
12:29 33.0 °C 26.0 °C 1008.5 hPa NW 12 km/h 20 km/h 70% 0.00 mm 445.81 W/m2
12:34 33.0 °C 26.0 °C 1008.5 hPa South 10 km/h 12 km/h 69% 0.00 mm 446.67 W/m2
12:39 33.0 °C 26.0 °C 1008.5 hPa SSW 10 km/h 16 km/h 68% 0.00 mm 454.33 W/m2
12:44 33.0 °C 26.0 °C 1008.5 hPa NW 13 km/h 16 km/h 69% 0.00 mm 456.90 W/m2
12:49 33.0 °C 26.0 °C 1008.1 hPa WNW 15 km/h 16 km/h 70% 0.00 mm 460.64 W/m2
12:54 33.0 °C 26.0 °C 1008.1 hPa NW 13 km/h 16 km/h 69% 0.00 mm 468.79 W/m2
12:59 34.0 °C 27.0 °C 1008.1 hPa SSW 10 km/h 12 km/h 68% 0.00 mm 470.92 W/m2
13:04 33.0 °C 26.0 °C 1007.8 hPa SSW 10 km/h 12 km/h 67% 0.00 mm 443.00 W/m2
13:09 33.0 °C 26.0 °C 1007.5 hPa South 11 km/h 12 km/h 68% 0.00 mm 459.51 W/m2
13:14 34.0 °C 27.0 °C 1007.5 hPa SSW 14 km/h 16 km/h 68% 0.00 mm 487.02 W/m2
13:19 34.0 °C 27.0 °C 1007.5 hPa WNW 12 km/h 16 km/h 67% 0.00 mm 491.37 W/m2
13:24 34.0 °C 27.0 °C 1007.5 hPa West 13 km/h 20 km/h 66% 0.00 mm 465.22 W/m2
13:29 35.0 °C 27.0 °C 1007.1 hPa SSW 12 km/h 16 km/h 65% 0.00 mm 485.69 W/m2
13:34 35.0 °C 26.0 °C 1007.1 hPa SSE 14 km/h 16 km/h 64% 0.00 mm 501.65 W/m2
13:39 35.0 °C 27.0 °C 1007.1 hPa SW 10 km/h 12 km/h 64% 0.00 mm 495.26 W/m2
13:44 35.0 °C 27.0 °C 1007.1 hPa SSW 10 km/h 12 km/h 64% 0.00 mm 480.95 W/m2
13:49 35.0 °C 27.0 °C 1006.8 hPa SSW 10 km/h 16 km/h 64% 0.00 mm 457.29 W/m2
13:54 35.0 °C 27.0 °C 1006.8 hPa South 12 km/h 16 km/h 64% 0.00 mm 485.87 W/m2
13:59 35.0 °C 27.0 °C 1006.8 hPa South 15 km/h 16 km/h 64% 0.00 mm 494.94 W/m2
14:04 35.0 °C 27.0 °C 1006.4 hPa SSW 12 km/h 16 km/h 64% 0.00 mm 466.73 W/m2
14:09 36.0 °C 27.0 °C 1006.4 hPa SSW 9 km/h 12 km/h 62% 0.00 mm 477.79 W/m2
14:14 36.0 °C 27.0 °C 1006.4 hPa SSW 10 km/h 12 km/h 65% 0.00 mm 477.82 W/m2
14:19 35.0 °C 27.0 °C 1006.4 hPa West 13 km/h 20 km/h 66% 0.00 mm 470.26 W/m2
14:24 35.0 °C 27.0 °C 1006.4 hPa SSW 9 km/h 12 km/h 66% 0.00 mm 461.30 W/m2
14:29 35.0 °C 27.0 °C 1006.4 hPa SW 9 km/h 12 km/h 65% 0.00 mm 468.74 W/m2
14:34 35.0 °C 27.0 °C 1006.4 hPa WSW 10 km/h 12 km/h 65% 0.00 mm 446.23 W/m2
14:39 35.0 °C 27.0 °C 1006.1 hPa SW 9 km/h 12 km/h 65% 0.00 mm 450.29 W/m2
14:44 35.0 °C 27.0 °C 1006.1 hPa South 13 km/h 16 km/h 64% 0.00 mm 413.54 W/m2
14:49 36.0 °C 27.0 °C 1005.8 hPa SW 9 km/h 12 km/h 63% 0.00 mm 408.43 W/m2
14:54 36.0 °C 27.0 °C 1005.8 hPa South 9 km/h 16 km/h 62% 0.00 mm 432.23 W/m2
14:59 36.0 °C 27.0 °C 1005.8 hPa South 15 km/h 16 km/h 61% 0.00 mm 437.86 W/m2
15:04 36.0 °C 26.0 °C 1005.8 hPa ESE 13 km/h 16 km/h 60% 0.00 mm 432.45 W/m2
15:09 36.0 °C 27.0 °C 1005.8 hPa South 11 km/h 12 km/h 59% 0.00 mm 427.63 W/m2
15:14 36.0 °C 26.0 °C 1005.8 hPa South 10 km/h 12 km/h 59% 0.00 mm 426.85 W/m2
15:19 36.0 °C 27.0 °C 1005.4 hPa SSE 9 km/h 16 km/h 59% 0.00 mm 407.96 W/m2
15:24 36.0 °C 26.0 °C 1005.4 hPa South 12 km/h 16 km/h 58% 0.00 mm 397.27 W/m2
15:29 35.0 °C 26.0 °C 1005.4 hPa SSW 13 km/h 16 km/h 59% 0.00 mm 401.40 W/m2
15:34 35.0 °C 26.0 °C 1005.4 hPa South 13 km/h 16 km/h 61% 0.00 mm 396.05 W/m2
15:39 36.0 °C 27.0 °C 1005.4 hPa SSW 9 km/h 12 km/h 60% 0.00 mm 385.92 W/m2
15:44 36.0 °C 26.0 °C 1005.4 hPa South 8 km/h 16 km/h 59% 0.00 mm 371.95 W/m2
15:49 36.0 °C 26.0 °C 1005.4 hPa South 9 km/h 12 km/h 59% 0.00 mm 349.68 W/m2
15:54 35.0 °C 26.0 °C 1005.4 hPa SSW 13 km/h 16 km/h 59% 0.00 mm 343.86 W/m2
15:59 35.0 °C 26.0 °C 1005.4 hPa East 12 km/h 16 km/h 59% 0.00 mm 340.16 W/m2
16:04 35.0 °C 26.0 °C 1005.8 hPa South 12 km/h 16 km/h 59% 0.00 mm 326.80 W/m2
16:09 35.0 °C 26.0 °C 1005.4 hPa South 12 km/h 16 km/h 60% 0.00 mm 315.01 W/m2
16:14 35.0 °C 26.0 °C 1005.4 hPa South 12 km/h 20 km/h 59% 0.00 mm 290.54 W/m2
16:19 35.0 °C 26.0 °C 1005.8 hPa SSE 10 km/h 12 km/h 60% 0.00 mm 280.68 W/m2
16:24 35.0 °C 26.0 °C 1005.8 hPa South 9 km/h 12 km/h 60% 0.00 mm 260.01 W/m2
16:29 35.0 °C 26.0 °C 1005.8 hPa South 15 km/h 20 km/h 61% 0.00 mm 261.43 W/m2
16:34 34.0 °C 25.0 °C 1005.4 hPa SSW 17 km/h 24 km/h 62% 0.00 mm 254.87 W/m2
16:39 34.0 °C 26.0 °C 1005.8 hPa South 13 km/h 16 km/h 63% 0.00 mm 246.06 W/m2
16:44 34.0 °C 26.0 °C 1005.8 hPa SSW 14 km/h 20 km/h 66% 0.00 mm 239.60 W/m2
16:49 33.0 °C 26.0 °C 1006.1 hPa SSE 17 km/h 20 km/h 73% 0.00 mm 199.67 W/m2
16:54 32.0 °C 27.0 °C 1005.8 hPa South 19 km/h 20 km/h 75% 0.00 mm 189.40 W/m2
16:59 32.0 °C 26.0 °C 1006.1 hPa South 15 km/h 16 km/h 75% 0.00 mm 160.13 W/m2
17:04 32.0 °C 27.0 °C 1006.1 hPa South 13 km/h 16 km/h 75% 0.00 mm 167.74 W/m2
17:09 32.0 °C 27.0 °C 1006.1 hPa SE 12 km/h 16 km/h 76% 0.00 mm 111.96 W/m2
17:14 31.0 °C 26.0 °C 1006.1 hPa SSW 15 km/h 20 km/h 77% 0.00 mm 73.99 W/m2
17:19 31.0 °C 26.0 °C 1006.1 hPa SSW 15 km/h 20 km/h 79% 0.00 mm 64.82 W/m2
17:24 31.0 °C 27.0 °C 1006.4 hPa South 16 km/h 20 km/h 80% 0.00 mm 64.15 W/m2
17:29 30.0 °C 27.0 °C 1006.1 hPa South 16 km/h 20 km/h 81% 0.00 mm 53.84 W/m2
17:34 30.0 °C 27.0 °C 1006.4 hPa South 15 km/h 20 km/h 82% 0.00 mm 39.97 W/m2
17:39 30.0 °C 27.0 °C 1006.4 hPa SSE 17 km/h 24 km/h 82% 0.00 mm 35.67 W/m2
17:44 30.0 °C 27.0 °C 1006.4 hPa SSE 13 km/h 16 km/h 82% 0.00 mm 31.15 W/m2
17:49 30.0 °C 26.0 °C 1006.8 hPa South 15 km/h 20 km/h 81% 0.00 mm 27.17 W/m2
17:54 30.0 °C 26.0 °C 1006.8 hPa South 13 km/h 16 km/h 80% 0.00 mm 20.14 W/m2
17:59 30.0 °C 26.0 °C 1006.8 hPa SSE 15 km/h 20 km/h 80% 0.00 mm 10.41 W/m2
18:04 30.0 °C 26.0 °C 1006.8 hPa SSE 15 km/h 20 km/h 80% 0.00 mm 5.19 W/m2
18:09 30.0 °C 26.0 °C 1006.8 hPa SSE 15 km/h 24 km/h 82% 0.00 mm 0.77 W/m2
18:14 30.0 °C 26.0 °C 1007.1 hPa South 15 km/h 20 km/h 84% 0.00 mm 0.00 W/m2
18:19 29.0 °C 26.0 °C 1007.1 hPa SSE 20 km/h 28 km/h 84% 0.00 mm 0.00 W/m2
18:24 29.0 °C 26.0 °C 1006.8 hPa South 11 km/h 20 km/h 83% 0.00 mm 0.00 W/m2
18:29 29.0 °C 26.0 °C 1006.8 hPa SSE 18 km/h 24 km/h 83% 0.00 mm 0.00 W/m2
18:34 29.0 °C 26.0 °C 1007.1 hPa SSE 12 km/h 16 km/h 83% 0.00 mm 0.00 W/m2
18:39 29.0 °C 26.0 °C 1007.1 hPa South 13 km/h 16 km/h 82% 0.00 mm 0.00 W/m2
18:44 29.0 °C 26.0 °C 1007.5 hPa SSE 10 km/h 16 km/h 83% 0.00 mm 0.00 W/m2
18:49 29.0 °C 26.0 °C 1007.5 hPa South 15 km/h 20 km/h 83% 0.00 mm 0.00 W/m2
18:54 29.0 °C 26.0 °C 1007.5 hPa South 12 km/h 12 km/h 83% 0.00 mm 0.00 W/m2
18:59 29.0 °C 26.0 °C 1007.5 hPa SSE 18 km/h 24 km/h 83% 0.00 mm 0.00 W/m2
19:04 29.0 °C 26.0 °C 1007.5 hPa South 14 km/h 20 km/h 84% 0.00 mm 0.00 W/m2
19:09 29.0 °C 26.0 °C 1007.5 hPa South 15 km/h 20 km/h 85% 0.00 mm 0.00 W/m2
19:14 29.0 °C 26.0 °C 1007.5 hPa South 11 km/h 16 km/h 85% 0.00 mm 0.00 W/m2
19:19 29.0 °C 26.0 °C 1007.5 hPa South 15 km/h 16 km/h 85% 0.00 mm 0.00 W/m2
19:24 29.0 °C 26.0 °C 1007.5 hPa SSE 15 km/h 16 km/h 85% 0.00 mm 0.00 W/m2
19:29 29.0 °C 26.0 °C 1007.8 hPa South 15 km/h 20 km/h 85% 0.00 mm 0.00 W/m2
19:34 29.0 °C 26.0 °C 1007.8 hPa South 15 km/h 20 km/h 85% 0.00 mm 0.00 W/m2
19:39 29.0 °C 26.0 °C 1007.8 hPa South 12 km/h 16 km/h 85% 0.00 mm 0.00 W/m2
19:44 29.0 °C 26.0 °C 1008.1 hPa SE 12 km/h 16 km/h 85% 0.00 mm 0.00 W/m2
19:49 29.0 °C 26.0 °C 1008.1 hPa SSE 13 km/h 16 km/h 86% 0.00 mm 0.00 W/m2
19:54 29.0 °C 26.0 °C 1008.1 hPa SE 13 km/h 16 km/h 86% 0.00 mm 0.00 W/m2
19:59 29.0 °C 26.0 °C 1008.5 hPa SSE 10 km/h 12 km/h 86% 0.00 mm 0.00 W/m2
20:04 29.0 °C 26.0 °C 1008.5 hPa South 10 km/h 12 km/h 85% 0.00 mm 0.00 W/m2
20:09 29.0 °C 26.0 °C 1008.8 hPa SSE 8 km/h 8 km/h 85% 0.00 mm 0.00 W/m2
20:14 29.0 °C 26.0 °C 1008.5 hPa South 12 km/h 12 km/h 85% 0.00 mm 0.00 W/m2
20:19 29.0 °C 26.0 °C 1008.8 hPa SSE 12 km/h 16 km/h 85% 0.00 mm 0.00 W/m2
20:24 29.0 °C 26.0 °C 1008.8 hPa SSE 8 km/h 12 km/h 85% 0.00 mm 0.00 W/m2
20:29 29.0 °C 26.0 °C 1008.8 hPa SSE 12 km/h 16 km/h 85% 0.00 mm 0.00 W/m2
20:34 29.0 °C 26.0 °C 1008.8 hPa SSE 13 km/h 16 km/h 86% 0.00 mm 0.00 W/m2
20:39 29.0 °C 26.0 °C 1009.1 hPa SSE 8 km/h 12 km/h 86% 0.00 mm 0.00 W/m2
20:44 29.0 °C 26.0 °C 1008.8 hPa SSE 9 km/h 16 km/h 86% 0.00 mm 0.00 W/m2
20:49 29.0 °C 26.0 °C 1009.1 hPa South 7 km/h 8 km/h 86% 0.00 mm 0.00 W/m2
20:54 29.0 °C 26.0 °C 1009.1 hPa SSE 11 km/h 12 km/h 86% 0.00 mm 0.00 W/m2
20:59 29.0 °C 26.0 °C 1008.8 hPa SSE 9 km/h 12 km/h 86% 0.00 mm 0.00 W/m2
21:04 29.0 °C 26.0 °C 1009.1 hPa SSE 5 km/h 8 km/h 86% 0.00 mm 0.00 W/m2
21:09 29.0 °C 26.0 °C 1009.1 hPa SSE 10 km/h 12 km/h 86% 0.00 mm 0.00 W/m2
21:14 29.0 °C 26.0 °C 1009.1 hPa SSE 6 km/h 8 km/h 87% 0.00 mm 0.00 W/m2
21:19 29.0 °C 26.0 °C 1009.1 hPa South 5 km/h 8 km/h 87% 0.00 mm 0.00 W/m2
21:24 29.0 °C 26.0 °C 1009.1 hPa SSE 6 km/h 8 km/h 87% 0.00 mm 0.00 W/m2
21:29 29.0 °C 26.0 °C 1009.1 hPa South 7 km/h 8 km/h 87% 0.00 mm 0.00 W/m2
21:34 29.0 °C 26.0 °C 1009.1 hPa SSW 4 km/h 4 km/h 87% 0.00 mm 0.00 W/m2
21:44 29.0 °C 26.0 °C 1008.8 hPa SSE 2 km/h 4 km/h 88% 0.00 mm 0.00 W/m2
21:49 29.0 °C 26.0 °C 1009.1 hPa SSW 4 km/h 8 km/h 88% 0.00 mm 0.00 W/m2
21:54 29.0 °C 26.0 °C 1009.1 hPa South 7 km/h 8 km/h 88% 0.00 mm 0.00 W/m2
21:59 29.0 °C 27.0 °C 1009.1 hPa SSE 10 km/h 12 km/h 89% 0.00 mm 0.00 W/m2
22:04 29.0 °C 27.0 °C 1009.1 hPa South 15 km/h 20 km/h 89% 0.00 mm 0.00 W/m2
22:09 28.0 °C 26.0 °C 1009.1 hPa South 15 km/h 20 km/h 89% 1.78 mm 0.00 W/m2
22:14 28.0 °C 26.0 °C 1009.1 hPa SSE 9 km/h 12 km/h 91% 1.78 mm 0.00 W/m2
22:19 28.0 °C 26.0 °C 1009.1 hPa SSE 7 km/h 8 km/h 91% 1.78 mm 0.00 W/m2
22:24 28.0 °C 26.0 °C 1009.1 hPa SSE 5 km/h 8 km/h 91% 0.00 mm 0.00 W/m2
22:29 28.0 °C 26.0 °C 1009.1 hPa SSE 9 km/h 12 km/h 92% 0.00 mm 0.00 W/m2
22:34 28.0 °C 26.0 °C 1009.1 hPa SE 5 km/h 8 km/h 92% 0.00 mm 0.00 W/m2
22:39 28.0 °C 27.0 °C 1009.1 hPa SSE 8 km/h 8 km/h 92% 0.00 mm 0.00 W/m2
22:44 28.0 °C 27.0 °C 1009.1 hPa SSE 5 km/h 8 km/h 92% 0.00 mm 0.00 W/m2
22:49 28.0 °C 27.0 °C 1009.1 hPa SSE 3 km/h 4 km/h 92% 0.00 mm 0.00 W/m2
22:54 28.0 °C 27.0 °C 1009.1 hPa SSW 4 km/h 4 km/h 93% 0.00 mm 0.00 W/m2
22:59 28.0 °C 27.0 °C 1009.1 hPa SE 4 km/h 4 km/h 93% 0.00 mm 0.00 W/m2
23:04 28.0 °C 27.0 °C 1009.1 hPa Calm   4 km/h 92% 0.00 mm 0.00 W/m2
23:09 28.0 °C 27.0 °C 1009.1 hPa SSE 5 km/h 8 km/h 91% 0.00 mm 0.00 W/m2
23:14 28.0 °C 26.0 °C 1009.1 hPa SSE 5 km/h 8 km/h 90% 0.00 mm 0.00 W/m2
23:19 28.0 °C 26.0 °C 1009.1 hPa SE 6 km/h 8 km/h 89% 0.00 mm 0.00 W/m2
23:24 28.0 °C 26.0 °C 1009.1 hPa SE 7 km/h 8 km/h 87% 0.00 mm 0.00 W/m2
23:29 29.0 °C 26.0 °C 1009.1 hPa SE 9 km/h 12 km/h 85% 0.00 mm 0.00 W/m2
23:34 29.0 °C 26.0 °C 1009.1 hPa SE 10 km/h 12 km/h 84% 0.00 mm 0.00 W/m2
23:39 29.0 °C 26.0 °C 1009.1 hPa SE 10 km/h 12 km/h 85% 0.00 mm 0.00 W/m2
23:44 29.0 °C 26.0 °C 1009.1 hPa ESE 5 km/h 8 km/h 85% 0.00 mm 0.00 W/m2
23:49 29.0 °C 26.0 °C 1008.8 hPa ESE 5 km/h 8 km/h 84% 0.00 mm 0.00 W/m2
23:54 29.0 °C 26.0 °C 1008.8 hPa SE 4 km/h 4 km/h 84% 0.00 mm 0.00 W/m2
23:59 29.0 °C 26.0 °C 1008.8 hPa SE 12 km/h 16 km/h 84% 0.00 mm 0.00 W/m2
PIMOHWEATHER Philippines
Compliments of Weather Underground - 2 mb